Wind_Speed
41 44 46 47 48 48 47 47 49 47 44 46 48 43 42 48 46 43 46 49 46 45 47 46 44 40 42 44 39 51 64 71 70 67 64 62 59 56
45 43 45 47 49 48 51 54 50 51 50 44 46 47 47 42 43 43 48 47 49 50 52 51 47 47 48 47 50 37 48 64 71 75 71 70 69 64
46 48 50 51 51 53 52 53 46 48 47 41 42 39 38 43 39 40 47 53 57 61 56 54 59 60 57 57 46 49 49 52 68 78 79 79 77 74
53 51 54 58 57 56 54 52 50 55 52 45 43 43 48 46 42 50 48 49 55 61 62 64 64 67 66 63 60 56 54 60 63 67 78 84 85 82
59 58 59 63 59 61 59 61 61 57 53 50 50 53 56 55 52 48 56 58 56 60 64 62 66 70 69 74 72 57 53 52 64 62 73 86 92 89
62 66 68 63 61 65 64 64 62 57 56 56 58 61 66 67 61 65 64 50 54 55 61 64 70 69 70 73 75 71 63 62 65 67 75 80 91 98
67 67 70 64 64 67 66 68 63 61 61 59 61 70 72 70 69 77 65 67 66 62 60 61 68 66 66 73 83 87 79 75 71 68 68 88 89 86
70 71 67 69 67 66 68 68 65 60 61 65 74 82 79 78 78 68 69 70 64 66 61 73 77 75 79 84 89 91 89 79 72 66 68 78 86 86
74 73 70 67 71 70 70 64 61 65 67 72 72 83 86 78 73 69 68 66 64 68 67 70 77 79 84 82 84 84 77 73 68 66 69 73 80 91
75 74 73 73 72 70 65 57 62 79 76 82 88 82 78 77 72 65 65 63 65 67 66 66 72 75 79 80 81 81 76 67 66 65 67 77 88 86
75 74 74 74 73 71 73 72 75 76 85 88 84 80 78 76 75 72 72 72 72 76 80 75 80 81 81 83 81 77 68 60 59 62 68 70 78 80
75 78 76 76 75 75 75 78 81 84 85 83 81 79 79 80 80 79 80 79 79 81 85 78 80 77 73 70 63 55 48 45 46 52 58 64 69 69
79 81 79 76 78 77 78 79 84 83 82 82 82 84 86 85 84 83 82 82 80 78 76 69 63 54 51 53 52 43 40 41 42 46 50 55 61 65
80 79 77 77 77 78 80 83 82 81 84 89 89 87 87 88 87 84 78 73 69 63 59 56 53 48 45 42 43 38 33 38 38 41 43 47 55 60
79 79 78 77 79 80 82 83 84 86 91 92 88 88 88 86 78 71 66 62 58 54 51 48 45 44 40 40 41 34 33 32 34 36 39 45 52 57
80 78 78 77 80 80 82 84 88 91 94 91 88 83 76 69 64 61 58 55 51 49 47 45 41 37 35 35 34 31 29 29 30 34 38 43 49 53
78 76 77 80 81 84 88 91 92 94 91 88 81 73 67 62 57 54 52 50 47 47 46 42 35 33 31 32 31 30 28 28 27 30 35 41 47 52
77 80 82 84 85 87 92 95 98 89 86 77 72 68 64 61 56 52 48 47 45 44 43 39 33 29 29 29 28 28 27 30 28 31 37 41 46 48
81 91 93 91 87 90 92 95 87 82 72 63 59 56 52 51 48 46 44 42 41 42 39 34 30 28 27 26 26 28 28 30 30 30 35 40 43 49
86 88 89 88 89 90 91 88 82 71 61 56 53 49 46 45 42 40 39 40 38 38 34 31 29 26 25 24 24 27 28 29 29 31 34 39 43 51
91 96 92 95 92 90 87 81 73 62 56 53 49 47 45 43 40 39 37 37 35 34 30 28 26 25 25 25 26 25 27 28 27 30 33 39 41 49
92 94 89 94 89 83 79 74 62 57 51 50 49 48 45 42 40 37 36 35 33 30 28 26 23 23 24 27 26 24 24 28 26 25 31 36 42 49
88 100 94 85 81 79 76 64 55 50 48 48 47 46 43 40 37 36 34 33 31 27 26 22 21 20 24 26 24 23 25 25 22 24 29 34 43 48
Wind_Direction
322 322 320 318 319 321 322 321 319 312 309 305 303 296 282 294 289 288 279 279 283 282 277 276 257 274 263 243 254 254 250 241 236 239 242 241 239 237
325 321 318 319 321 322 325 322 318 316 317 303 296 297 301 297 296 290 275 276 274 286 278 278 274 272 271 272 248 251 248 249 246 236 236 241 240 239
325 323 324 325 323 323 322 321 315 320 314 305 307 304 303 307 305 295 282 279 281 280 281 274 271 275 276 273 266 253 256 244 247 245 237 234 240 239
324 325 323 325 323 327 328 329 322 320 318 309 310 308 305 304 298 289 292 283 281 272 273 279 277 275 270 269 274 274 255 238 235 238 242 239 234 239
323 323 326 325 324 326 325 324 322 320 315 309 306 308 308 312 298 299 293 284 276 275 268 269 266 265 268 268 274 274 263 251 240 238 237 241 237 233
324 323 325 324 323 324 323 325 318 316 313 310 310 311 312 311 298 300 305 291 284 279 270 267 258 261 266 265 270 279 272 271 268 248 240 239 237 233
323 323 325 322 323 321 321 321 315 311 312 309 307 312 310 309 304 303 300 300 293 280 273 272 264 270 267 265 271 278 277 272 271 266 258 238 239 239
320 321 321 322 321 319 319 315 314 311 309 308 311 314 311 306 303 300 299 296 288 283 270 274 278 274 268 269 270 271 273 270 266 258 246 240 239 239
317 317 319 320 319 318 317 313 311 310 308 308 310 305 305 305 304 299 294 291 285 278 277 274 272 273 273 271 271 272 273 272 267 257 245 231 232 237
316 317 318 319 318 317 312 306 304 307 311 308 306 306 306 303 303 299 295 293 287 284 279 277 278 276 276 277 278 279 277 272 265 256 244 237 232 239
314 315 316 315 315 312 308 304 307 303 307 307 307 305 304 303 301 297 292 291 288 286 285 284 282 282 282 282 282 279 275 268 259 250 243 241 238 236
314 316 315 315 310 307 307 305 309 308 306 306 305 303 302 301 299 297 294 292 290 287 288 290 287 288 285 280 277 275 270 262 249 242 236 234 235 232
313 314 313 311 309 310 309 307 309 307 306 306 305 304 303 302 301 299 296 294 293 292 292 291 290 288 282 280 280 272 266 258 246 241 238 232 229 227
312 310 309 308 309 310 310 311 310 310 311 311 309 307 305 303 302 300 301 300 298 296 295 295 294 293 288 284 278 273 262 255 246 240 236 231 226 221
308 309 309 308 310 312 314 315 315 314 312 310 309 307 305 304 304 304 302 300 297 296 294 293 289 287 284 280 278 272 265 252 246 241 234 226 223 220
309 310 309 310 312 314 315 316 317 315 313 311 309 307 305 304 302 301 300 299 299 299 297 296 292 286 279 273 273 269 259 252 242 235 228 221 220 214
313 312 311 311 313 316 319 318 316 315 313 313 311 310 309 307 306 304 303 302 301 300 299 298 290 283 274 268 266 261 255 248 245 233 226 220 214 209
317 316 315 316 314 315 316 318 318 316 314 313 311 309 308 306 305 303 300 300 299 300 299 296 287 279 273 264 258 254 247 245 233 229 222 215 211 207
313 313 313 315 315 314 315 316 316 316 313 311 310 307 305 303 303 302 300 300 301 300 298 293 283 274 270 261 247 246 242 243 232 225 219 213 210 205
317 319 318 317 315 315 315 316 318 317 314 314 313 311 311 310 309 305 302 301 299 297 297 288 277 267 265 253 237 237 241 237 229 223 216 213 208 205
313 316 317 317 316 318 317 319 318 316 316 314 315 316 315 313 310 306 302 301 301 301 297 285 274 261 255 245 239 232 233 238 232 222 216 212 206 201
314 316 316 317 317 319 319 320 316 315 315 316 317 317 317 314 309 305 302 304 304 304 296 287 272 256 247 238 238 232 230 234 238 224 215 210 203 202
313 317 317 319 319 322 320 317 314 315 318 321 320 316 316 314 308 304 301 305 306 304 296 288 270 250 240 233 232 232 233 241 233 225 209 203 201 202
Height
10909 10905 10900 10896 10891 10885 10879 10872 10867 10863 10861 10859 10854 10851 10847 10842 10839 10837 10835 10833 10833 10835 10834 10834 10835 10833 10831 10831 10830 10830 10830 10834 10839 10844 10849 10856 10861 10866
10899 10898 10894 10888 10882 10876 10869 10863 10857 10849 10845 10843 10841 10837 10834 10830 10827 10822 10820 10818 10818 10815 10812 10813 10815 10814 10815 10815 10815 10813 10815 10814 10818 10825 10833 10838 10844 10851
10893 10887 10881 10877 10870 10865 10860 10855 10848 10841 10834 10828 10825 10823 10820 10817 10814 10812 10808 10803 10798 10796 10796 10794 10794 10793 10794 10794 10793 10794 10796 10797 10799 10803 10810 10818 10825 10832
10880 10878 10871 10862 10857 10851 10845 10840 10834 10828 10822 10815 10811 10807 10803 10803 10800 10797 10794 10791 10785 10781 10777 10775 10772 10773 10773 10773 10773 10774 10774 10774 10776 10780 10787 10793 10804 10813
10867 10863 10858 10849 10841 10834 10829 10823 10818 10812 10805 10799 10795 10792 10787 10786 10783 10782 10779 10772 10768 10764 10762 10761 10756 10752 10752 10751 10750 10750 10751 10751 10756 10757 10761 10770 10779 10790
10856 10847 10840 10833 10828 10820 10814 10810 10803 10796 10790 10785 10779 10773 10768 10764 10763 10759 10752 10751 10745 10741 10740 10738 10733 10731 10731 10729 10725 10722 10723 10726 10729 10732 10735 10740 10746 10760
10845 10837 10830 10823 10815 10809 10801 10794 10787 10780 10774 10769 10763 10760 10755 10749 10743 10734 10727 10721 10714 10713 10715 10709 10709 10709 10704 10702 10699 10696 10694 10696 10699 10703 10705 10711 10718 10729
10836 10827 10822 10813 10804 10795 10787 10778 10770 10764 10758 10752 10744 10736 10731 10726 10720 10712 10707 10701 10695 10685 10692 10685 10684 10682 10678 10672 10668 10667 10668 10667 10667 10667 10673 10683 10691 10701
10823 10816 10809 10802 10793 10782 10775 10763 10751 10745 10739 10733 10727 10718 10711 10702 10700 10692 10685 10680 10673 10665 10666 10661 10659 10657 10650 10645 10641 10639 10637 10636 10636 10640 10643 10652 10659 10666
10811 10802 10795 10786 10779 10767 10758 10749 10742 10734 10725 10719 10710 10697 10690 10682 10676 10671 10663 10659 10649 10642 10641 10642 10632 10627 10620 10615 10608 10606 10606 10606 10605 10609 10613 10618 10628 10637
10800 10788 10781 10772 10764 10754 10744 10734 10724 10715 10707 10697 10687 10677 10668 10660 10654 10649 10640 10635 10626 10614 10604 10613 10602 10597 10592 10583 10577 10573 10575 10579 10579 10581 10588 10595 10604 10615
10781 10774 10765 10756 10746 10738 10730 10718 10707 10699 10686 10676 10665 10655 10649 10640 10631 10624 10613 10606 10599 10588 10574 10580 10572 10567 10562 10551 10548 10549 10551 10552 10555 10558 10563 10569 10578 10591
10762 10753 10746 10738 10729 10719 10710 10699 10691 10678 10666 10655 10645 10633 10622 10614 10604 10595 10586 10575 10568 10561 10552 10549 10544 10542 10538 10533 10525 10530 10532 10532 10537 10541 10546 10551 10561 10574
10747 10737 10728 10721 10712 10701 10690 10680 10668 10655 10642 10628 10618 10607 10596 10585 10577 10566 10556 10549 10541 10535 10529 10524 10521 10519 10516 10514 10510 10512 10516 10516 10521 10525 10530 10536 10544 10557
10732 10723 10712 10700 10692 10681 10668 10656 10644 10632 10618 10604 10595 10582 10570 10558 10548 10540 10532 10527 10520 10517 10513 10511 10508 10504 10502 10499 10496 10500 10501 10504 10507 10511 10516 10523 10532 10543
10713 10704 10695 10685 10674 10663 10652 10639 10626 10611 10594 10580 10568 10560 10549 10538 10531 10524 10516 10509 10504 10498 10495 10493 10491 10490 10488 10487 10486 10488 10490 10491 10496 10500 10504 10512 10521 10533
10696 10685 10676 10666 10654 10642 10630 10618 10605 10590 10572 10555 10543 10531 10523 10517 10512 10506 10499 10493 10489 10484 10480 10478 10477 10475 10476 10477 10478 10479 10481 10482 10486 10491 10495 10502 10512 10523
10677 10667 10657 10646 10635 10624 10610 10595 10580 10566 10551 10536 10522 10513 10506 10500 10495 10490 10485 10480 10476 10472 10468 10465 10464 10464 10465 10467 10468 10469 10473 10474 10478 10482 10488 10494 10505 10518
10661 10650 10638 10626 10615 10604 10591 10578 10563 10549 10535 10524 10514 10504 10496 10489 10483 10477 10472 10467 10464 10460 10458 10454 10453 10454 10456 10458 10460 10462 10465 10467 10471 10475 10481 10489 10500 10510
10645 10632 10617 10607 10597 10584 10569 10553 10541 10530 10519 10509 10501 10493 10486 10478 10472 10466 10461 10457 10454 10451 10448 10444 10443 10445 10447 10450 10454 10456 10458 10460 10465 10469 10476 10484 10493 10504
10627 10617 10604 10586 10574 10564 10552 10537 10524 10513 10505 10497 10489 10481 10474 10468 10462 10456 10452 10448 10445 10442 10439 10436 10436 10437 10439 10443 10446 10450 10452 10453 10459 10463 10469 10478 10487 10499
10610 10598 10588 10576 10559 10548 10535 10524 10512 10502 10494 10486 10478 10471 10465 10459 10453 10447 10443 10440 10437 10434 10431 10429 10429 10431 10434 10436 10440 10444 10447 10450 10454 10458 10464 10472 10482 10492
10591 10580 10570 10556 10541 10530 10520 10511 10501 10492 10484 10476 10469 10462 10456 10451 10445 10440 10437 10433 10430 10426 10423 10422 10422 10426 10428 10432 10435 10439 10441 10444 10449 10453 10459 10468 10478 10489